Regional Weather Roundup
Issued by NWS

Home | Current Version | Previous Version | Text Only | Print | Product List | Glossary On
Versions: 1 2 3 4 5 6 7 8 9 10 11 12 13 14 15 16 17 18 19 20 21 22 23 24 25 26 27 28 29 30 31 32 33 34 35 36 37 38 39 40 41 42 43 44 45 46 47 48 49 50
000
ASUS45 KREV 212110
RWRNV
NEVADA REGIONAL WEATHER ROUNDUP
NATIONAL WEATHER SERVICE RENO NV
200 PM PDT TUE OCT 21 2014

NOTE: "FAIR" INDICATES FEW OR NO CLOUDS BELOW 12,000 FEET WITH NO
SIGNIFICANT WEATHER AND/OR OBSTRUCTIONS TO VISIBILITY.

NVZ001-003-004-212200-
WESTERN NEVADA

CITY           SKY/WX    TMP DP  RH WIND       PRES   REMARKS
RENO           PTSUNNY   60  18  19 E3        30.06F
CARSON CITY    FAIR      63  16  16 NW7       30.06F
MINDEN         FAIR      63  14  15 NW5       30.05F
SLIDE MTN        N/A     39  19  45 SW6         N/A
FALLON         PTSUNNY   60  24  25 N6        30.06F
LOVELOCK       SUNNY     58  24  27 CALM      30.07F
HAWTHORNE      SUNNY     61  27  27 NW8       30.05F
$$

NVZ002-CAZ072-073-212200-
NORTHERN AND CENTRAL SIERRA

CITY           SKY/WX    TMP DP  RH WIND       PRES   REMARKS
S. LAKE TAHOE  SUNNY     57  19  22 VRB6      30.08F
TRUCKEE        MOSUNNY   55  18  22 NW8G16    30.08
SQUAW VLY 8000 NOT AVBL
SUSANVILLE     SUNNY     55  34  44 SE3       30.10
BLUE CANYON    SUNNY     53  26  35 S8        30.11F
MAMMOTH LAKES  FAIR      66  10  11 N5        30.07F
$$

NVZ030-031-036-212200-
NORTHERN NEVADA

CITY           SKY/WX    TMP DP  RH WIND       PRES   REMARKS
ELKO           SUNNY     57  20  23 W8        30.07F
WINNEMUCCA     SUNNY     57  28  33 NW7       30.08
WENDOVER       MOSUNNY   63  16  16 NW12      30.00S
$$

NVZ035-037-212200-
CENTRAL NEVADA

CITY           SKY/WX    TMP DP  RH WIND       PRES   REMARKS
ELY            CLOUDY    61  10  13 NW12      30.03F
EUREKA           N/A     60   9  13 W12G21    30.05F
$$

NVZ013-014-212200-
SOUTH CENTRAL NEVADA

CITY           SKY/WX    TMP DP  RH WIND       PRES   REMARKS
TONOPAH        MOSUNNY   65   7  10 NW15G23   30.02F
$$

NVZ017-020-022-212200-
SOUTHERN NEVADA

CITY           SKY/WX    TMP DP  RH WIND       PRES   REMARKS
LAS VEGAS      MOSUNNY   85  24  11 SW20G25   29.79F
N. LAS VEGAS   SUNNY     86  16   7 SW16      29.81F
NELLIS AFB     SUNNY     86  26  11 S14       29.80F
HENDERSON      SUNNY     84  30  14 SW17      29.85F
MERCURY        SUNNY     78  29  16 W14G21    29.88F
$$



USA.gov is the U.S. government's official web portal to all federal, state and local government web resources and services.